Location: Boiro
(42.6475°N, 8.8834°W)
Time: 17:38:28
(UTC+01:00)

Transit 2A - Pass Details

Date: 30 November 2021
Orbit: 591 x 967 km, 66.7° (Epoch: 20 January)

Event Time Altitude Azimuth Distance (km) Brightness Sun altitude
Rises 03:33:58 0° 237° (WSW) 3,292 - -55.8°
Reaches altitude 10° 03:36:29 10° 246° (WSW) 2,425 - -55.4°
Maximum altitude 03:41:39 36° 312° (NW) 1,371 - -54.5°
Drops below altitude 10° 03:47:17 10° 18° (NNE) 2,640 - -53.6°
Exits shadow 03:49:45 - 26° (NNE) 3,485 9.8 -53.2°
Sets 03:50:09 0° 27° (NNE) 3,622 9.9 -53.1°
